Satellite-Ground Cal/Val Region Overpasses Predictions

Prediction of Satellite NPP Overpassing Cal/Val Region: PacNW

Region Location: (Latitude: 10.00, Longitude: 139.50) to (Latitude: 22.70, Longitude: 165.60).

Table of predicted overpasses for the next 14.0 days since TLE Epoch: 4/6/2018
Interval Starting Time Starting Location Ending Time Ending Location
1 04/06/2018 14:29:43 ( 11.60, 165.59) 04/06/2018 14:30:10 ( 10.02, 165.23)
2 04/06/2018 16:08:04 ( 22.69, 142.87) 04/06/2018 16:11:40 ( 10.01, 139.85)
3 04/07/2018 03:17:10 ( 10.03, 150.38) 04/07/2018 03:20:45 ( 22.65, 147.38)
4 04/07/2018 15:49:02 ( 22.69, 147.63) 04/07/2018 15:52:38 ( 10.01, 144.61)
5 04/08/2018 02:58:08 ( 10.04, 155.14) 04/08/2018 03:01:43 ( 22.66, 152.14)
6 04/08/2018 15:30:01 ( 22.68, 152.38) 04/08/2018 15:33:37 ( 10.00, 149.36)
7 04/09/2018 02:39:07 ( 10.04, 159.90) 04/09/2018 02:42:42 ( 22.67, 156.89)
8 04/09/2018 15:11:00 ( 22.67, 157.14) 04/09/2018 15:14:35 ( 10.05, 154.13)
9 04/10/2018 02:20:05 ( 10.05, 164.65) 04/10/2018 02:23:40 ( 22.68, 161.65)
10 04/10/2018 14:51:58 ( 22.67, 161.89) 04/10/2018 14:55:33 ( 10.05, 158.89)
11 04/11/2018 03:42:33 ( 10.01, 144.04) 04/11/2018 03:46:09 ( 22.69, 141.03)
12 04/11/2018 14:34:10 ( 18.38, 165.59) 04/11/2018 14:36:32 ( 10.04, 163.64)
13 04/11/2018 16:14:27 ( 22.65, 141.27) 04/11/2018 16:16:31 ( 15.38, 139.51)
14 04/12/2018 03:23:31 ( 10.01, 148.80) 04/12/2018 03:27:07 ( 22.70, 145.78)
15 04/12/2018 15:55:25 ( 22.65, 146.03) 04/12/2018 15:59:00 ( 10.03, 143.02)
16 04/13/2018 03:04:30 ( 10.02, 153.55) 04/13/2018 03:08:05 ( 22.65, 150.55)
17 04/13/2018 15:36:23 ( 22.70, 150.80) 04/13/2018 15:39:59 ( 10.02, 147.78)
18 04/14/2018 02:45:28 ( 10.03, 158.31) 04/14/2018 02:49:03 ( 22.66, 155.30)
19 04/14/2018 15:17:21 ( 22.69, 155.55) 04/14/2018 15:20:57 ( 10.01, 152.53)
20 04/15/2018 02:26:27 ( 10.04, 163.06) 04/15/2018 02:30:02 ( 22.67, 160.06)
21 04/15/2018 14:58:20 ( 22.68, 160.30) 04/15/2018 15:01:56 ( 10.00, 157.29)
22 04/16/2018 02:10:06 ( 19.51, 165.60) 04/16/2018 02:11:00 ( 22.68, 164.81)
23 04/16/2018 03:48:54 ( 10.00, 142.46) 04/16/2018 03:52:25 ( 22.39, 139.51)
24 04/16/2018 14:39:18 ( 22.67, 165.06) 04/16/2018 14:42:53 ( 10.05, 162.06)
25 04/16/2018 16:20:48 ( 22.66, 139.68) 04/16/2018 16:21:00 ( 21.96, 139.51)
26 04/17/2018 03:29:53 ( 10.01, 147.21) 04/17/2018 03:33:29 ( 22.70, 144.19)
27 04/17/2018 16:01:47 ( 22.65, 144.44) 04/17/2018 16:05:22 ( 10.04, 141.44)
28 04/18/2018 03:10:52 ( 10.02, 151.96) 04/18/2018 03:14:27 ( 22.65, 148.96)
29 04/18/2018 15:42:45 ( 22.64, 149.19) 04/18/2018 15:46:20 ( 10.02, 146.19)
30 04/19/2018 02:51:50 ( 10.04, 156.72) 04/19/2018 02:55:25 ( 22.66, 153.72)
31 04/19/2018 15:23:43 ( 22.69, 153.96) 04/19/2018 15:27:19 ( 10.01, 150.94)


NCC Satellite Cal/Val Overpasses Prediction Service
